Location: Battersea Observatory
(44.4318°N, 76.3841°W)
Time: 09:39:06
(UTC-04:00)

Vanguard 2 - Pass Details

Date: 22 January 2022
Orbit: 552 x 2935 km, 32.9° (Epoch: 26 May)

Event Time Altitude Azimuth Distance (km) Brightness Sun altitude
Rises 01:25:19 0° 269° (W) 5,813 - -61.5°
Reaches altitude 10° 01:28:58 10° 264° (W) 5,066 - -61.1°
Maximum altitude 01:43:31 47° 198° (SSW) 3,525 - -59.4°
Exits shadow 01:56:35 18° 138° (SE) 5,006 11.5 -57.7°
Drops below altitude 10° 01:59:47 10° 132° (SE) 5,597 11.9 -57.3°
Sets 02:04:05 0° 127° (SE) 6,443 12.3 -56.7°
